MDT,Max TemperatureF,Mean TemperatureF,Min TemperatureF,Max Dew PointF,MeanDew PointF,Min DewpointF,Max Humidity, Mean Humidity, Min Humidity, Max Sea Level PressureIn, Mean Sea Level PressureIn, Min Sea Level PressureIn, Max VisibilityMiles, Mean VisibilityMiles, Min VisibilityMiles, Max Wind SpeedMPH, Mean Wind SpeedMPH, Max Gust SpeedMPH,PrecipitationIn, CloudCover, Events, WindDirDegrees
2012-10-1,67,56,47,47,37,29,86,53,24,30.33,30.18,29.96,10,10,10,18,12,24,0.00,2,,358
2012-10-2,83,64,46,34,31,28,50,31,15,29.92,29.77,29.70,10,10,9,21,9,28,0.00,0,,345
2012-10-3,57,46,37,40,36,32,93,82,42,30.33,30.15,29.71,10,10,6,39,22,47,0.00,7,Rain,335
2012-10-4,47,39,32,34,29,24,87,70,44,30.44,30.39,30.33,10,10,10,29,20,43,0.00,7,Rain,343
2012-10-5,43,36,30,27,23,20,76,58,42,30.44,30.42,30.39,10,10,10,10,5,,0.00,7,,341
2012-10-6,44,37,27,23,19,14,75,55,29,30.48,30.40,30.26,10,10,10,13,8,16,0.00,3,,330
2012-10-7,60,42,26,30,22,14,64,43,27,30.25,30.04,29.87,10,10,10,22,9,28,0.00,1,,278
2012-10-8,60,50,42,42,34,24,87,54,31,29.94,29.84,29.77,10,10,10,25,14,32,0.00,6,,311
2012-10-9,46,40,35,37,32,26,87,73,51,30.18,30.07,29.95,10,10,10,25,18,32,0.00,7,Rain,328
2012-10-10,70,49,28,32,28,24,83,46,21,30.17,29.99,29.85,10,10,10,17,4,18,0.00,1,,318
2012-10-11,47,40,32,34,30,26,87,71,52,30.35,30.24,30.01,10,10,10,14,10,,0.00,7,,54
2012-10-12,72,52,33,34,30,25,77,47,25,30.28,29.91,29.70,10,10,10,39,20,50,0.00,0,,186
2012-10-13,72,61,50,40,34,30,56,38,23,29.98,29.79,29.64,10,10,10,26,12,36,0.00,4,,338
2012-10-14,70,57,45,37,34,29,70,44,24,30.06,30.02,29.97,10,10,10,22,12,31,0.00,0,,320
2012-10-15,76,60,45,42,32,28,58,36,18,29.94,29.79,29.70,10,10,10,17,5,18,0.00,3,,308
2012-10-16,72,58,45,49,40,34,88,54,26,29.72,29.47,29.32,10,10,6,32,11,40,0.24,5,Rain,297
2012-10-17,53,46,41,30,23,17,64,40,28,29.80,29.67,29.51,10,10,10,50,32,58,0.12,2,,315
2012-10-18,52,46,36,23,17,10,46,35,24,30.05,29.90,29.74,10,10,10,59,43,69,0.82,0,,324
2012-10-19,61,47,33,26,19,13,52,34,23,30.04,29.86,29.70,10,10,10,16,10,,0.00,1,,207
2012-10-20,80,59,39,38,30,26,64,37,18,29.68,29.57,29.45,10,10,10,23,8,24,0.00,0,,278
2012-10-21,57,51,45,40,35,30,72,58,41,30.01,29.88,29.63,10,10,10,26,16,31,0.00,6,,5
2012-10-22,48,43,39,40,37,34,95,80,63,30.01,29.92,29.69,10,10,10,20,11,,0.02,7,Rain,147
2012-10-23,53,46,38,44,40,38,96,82,58,29.94,29.80,29.63,10,10,10,29,12,39,0.02,7,Rain,350
2012-10-24,42,37,32,41,34,27,100,94,81,30.18,30.03,29.91,10,6,1,25,10,31,0.21,8,Rain-Snow,342
2012-10-25,32,29,26,26,23,20,83,78,70,30.48,30.33,30.18,10,10,10,26,17,31,0.00,5,,347
2012-10-26,38,28,20,24,21,17,91,75,54,30.56,30.46,30.26,10,10,10,18,9,,0.00,4,,171
2012-10-27,45,34,23,26,24,20,86,67,43,30.23,30.18,30.13,10,10,10,18,6,,0.00,3,,358
2012-10-28,53,40,28,34,28,22,82,65,39,30.16,30.05,29.94,10,10,10,20,7,23,0.00,5,,172
2012-10-29,66,52,39,43,38,32,75,59,35,30.29,29.99,29.93,10,8,2,9,3,,0.00,4,,214
2012-10-30,67,54,43,41,37,34,82,58,31,30.07,30.02,29.97,10,10,7,15,7,,0.00,1,,313
2012-10-31,71,55,40,38,34,30,78,51,25,30.09,30.02,29.98,10,10,10,16,8,26,0.00,0,,308